Retour au catalogue

FENGYUN 1C DEB

ActifSSO
NORAD 31367·DEBRIS·🇨🇳 China

Lancé May 10, 1999 depuis Taiyuan Satellite Launch Center

Loading…

Prochains Passages (prochaines 24 heures)

TLE

FraisSource: Space-Track

Époque: Sep 14, 2026, 17:03 UTC

1 31367U 99025BRX 26257.71097086  .00000939  00000-0  24979-3 0  9990
2 31367  98.7241 166.2242 0095977 264.5091 124.3485 14.48455130 24402

Suivez FENGYUN 1C DEB en temps réel avec AllMySat

Download on the App Store